Regional Weather Roundup
Issued by NWS

Home | Current Version | Previous Version | Graphics & Text | Print | Product List | Glossary Off
Versions: 1 2 3 4 5 6 7 8 9 10 11 12 13 14 15 16 17 18 19 20 21 22 23 24 25 26 27 28 29 30 31 32 33 34 35 36 37 38 39 40 41 42 43 44 45 46 47 48 49 50

000
ASUS43 KFSD 181302
RWRSD

WEATHER ROUNDUP FOR SOUTH DAKOTA
NATIONAL WEATHER SERVICE SIOUX FALLS SD
800 AM CDT THU SEP 18 2014

NOTE: "FAIR" INDICATES FEW OR NO CLOUDS BELOW 12,000 FEET WITH NO
SIGNIFICANT WEATHER AND/OR OBSTRUCTIONS TO VISIBILITY.


SDZ001>005-009-010-012>017-181400-
NORTHWEST AND NORTH CENTRAL SOUTH DAKOTA

CITY           SKY/WX    TMP DP  RH WIND       PRES   REMARKS
FAITH            N/A     53  49  86 SE12      29.86F
MOBRIDGE       CLEAR     53  51  93 E9        29.88F
$$

SDZ012>016-024>037-041>051-057-063-072>074-181400-
SOUTHWEST AND SOUTH CENTRAL SOUTH DAKOTA

CITY           SKY/WX    TMP DP  RH WIND       PRES   REMARKS
RAPID CTY ARPT CLEAR     48  47  96 CALM      29.87S
PIERRE         MOCLDY    58  54  86 E7        29.89R
CUSTER         CLEAR     50  42  74 NW3       30.00S
ELLSWORTH AFB  CLEAR     51  49  92 W2        29.86S
PHILIP         CLEAR     51  49  92 E7        29.86S
PINE RIDGE     MOCLDY    62  60  93 SW12      29.91S
WINNER         FAIR      58  56  93 SE7       29.92F
$$

SDZ004>011-016>023-039-040-181400-
NORTHEAST SOUTH DAKOTA

CITY           SKY/WX    TMP DP  RH WIND       PRES   REMARKS
ABERDEEN       CLEAR     45  44  97 CALM      29.96S
WATERTOWN      CLEAR     56  51  84 SE8       29.99R
SISSETON         N/A     50  50 100 S7        30.00R
$$

SDZ017-020-022-023-036>040-048>070-181400-
SOUTHEAST SOUTH DAKOTA

CITY           SKY/WX    TMP DP  RH WIND       PRES   REMARKS
SIOUX FALLS    MOCLDY    60  55  83 SE7       30.01R
HURON          CLEAR     53  51  93 SE5       29.95R
CHAMBERLAIN    PTCLDY    55  54  94 SE7       29.94R
MITCHELL       CLOUDY    55  54  96 SE6       29.97R FOG
YANKTON        PTCLDY    55  55 100 E5        29.99R
$$

ABBREVIATIONS USED IN REMARKS
   TC - TEMPERATURE IN CELSIUS
  WCI - WIND CHILL INDEX
   HX - HEAT INDEX
  VSB - VISIBILITY



USA.gov is the U.S. government's official web portal to all federal, state and local government web resources and services.